Time,TemperatureF,DewpointF,PressureIn,WindDirection,WindDirectionDegrees,WindSpeedMPH,WindSpeedGustMPH,Humidity,HourlyPrecipIn,Conditions,Clouds,dailyrainin,SoftwareType,DateUTC
2013-07-03 02:00:00,45.0,32.0,-100.00,NNW,328,6.0,13.0,59,-99.99,,,-99.99,,2013-07-03 08:00:00,
2013-07-03 02:47:00,45.0,32.0,-100.00,NNW,328,6.0,13.0,59,-99.99,,,-99.99,,2013-07-03 08:47:00,
2013-07-03 02:57:00,45.0,32.0,-100.00,NNW,328,6.0,13.0,59,-99.99,,,-99.99,,2013-07-03 08:57:00,
2013-07-03 07:00:00,44.0,31.0,-100.00,North,4,12.0,20.0,59,-99.99,,,-99.99,,2013-07-03 13:00:00,
2013-07-03 07:55:00,44.0,31.0,-100.00,North,4,12.0,20.0,59,-99.99,,,-99.99,,2013-07-03 13:55:00,
2013-07-03 08:00:00,46.0,33.0,-100.00,North,5,12.0,27.0,59,-99.99,,,-99.99,,2013-07-03 14:00:00,
2013-07-03 08:47:00,46.0,33.0,-100.00,North,5,12.0,27.0,59,-99.99,,,-99.99,,2013-07-03 14:47:00,
2013-07-03 08:55:00,46.0,33.0,-100.00,North,5,12.0,27.0,59,-99.99,,,-99.99,,2013-07-03 14:55:00,
2013-07-03 10:00:00,49.0,31.0,-100.00,North,6,13.0,26.0,50,-99.99,,,-99.99,,2013-07-03 16:00:00,
2013-07-03 10:47:00,49.0,31.0,-100.00,North,6,13.0,26.0,50,-99.99,,,-99.99,,2013-07-03 16:47:00,
2013-07-03 10:59:00,49.0,31.0,-100.00,North,6,13.0,26.0,50,-99.99,,,-99.99,,2013-07-03 16:59:00,
2013-07-03 11:00:00,51.0,31.0,-100.00,North,360,12.0,22.0,46,-99.99,,,-99.99,,2013-07-03 17:00:00,
2013-07-03 11:49:00,51.0,31.0,-100.00,North,360,12.0,22.0,46,-99.99,,,-99.99,,2013-07-03 17:49:00,
2013-07-03 11:56:00,51.0,31.0,-100.00,North,360,12.0,22.0,46,-99.99,,,-99.99,,2013-07-03 17:56:00,
2013-07-03 12:00:00,52.0,31.0,-100.00,NNW,344,13.0,24.0,44,-99.99,,,-99.99,,2013-07-03 18:00:00,
2013-07-03 13:00:00,53.0,31.0,-100.00,North,351,13.0,24.0,43,-99.99,,,-99.99,,2013-07-03 19:00:00,
2013-07-03 13:49:00,53.0,31.0,-100.00,North,351,13.0,24.0,43,-99.99,,,-99.99,,2013-07-03 19:49:00,
2013-07-03 13:57:00,53.0,31.0,-100.00,North,351,13.0,24.0,43,-99.99,,,-99.99,,2013-07-03 19:57:00,
2013-07-03 18:00:00,49.0,33.0,-100.00,NNW,331,20.0,40.0,54,-99.99,,,-99.99,,2013-07-04 00:00:00,
2013-07-03 18:57:00,49.0,33.0,-100.00,NNW,331,20.0,40.0,54,-99.99,,,-99.99,,2013-07-04 00:57:00,
2013-07-03 23:00:00,43.0,36.0,-100.00,NW,313,13.0,29.0,74,-99.99,,,-99.99,,2013-07-04 05:00:00,
2013-07-03 23:43:00,43.0,36.0,-100.00,NW,313,13.0,29.0,74,-99.99,,,-99.99,,2013-07-04 05:43:00,
2013-07-03 23:52:00,43.0,36.0,-100.00,NW,313,13.0,29.0,74,-99.99,,,-99.99,,2013-07-04 05:52:00,